Sioux Falls, SD

3:36 AM CST on January 22, 2017 (GMT -0600)
Foss

Weather History for KFSD - January, 2014

Change the Weather History Date:

Sunday, January 26, 2014

  Actual Average Record
Temperature  
Mean Temperature 19 °F 17 °F  
Max Temperature 40 °F 27 °F 63 °F (2002)
Min Temperature -2 °F 7 °F -27 °F (1897)
Degree Days  
Heating Degree Days 46 48  
Month to date heating degree days 1317 1266  
Since 1 July heating degree days 4585 4399  
Cooling Degree Days 0 0  
Month to date cooling degree days 0 0  
Year to date cooling degree days 0 0  
Moisture  
Dew Point 13 °F    
Average Humidity 70    
Maximum Humidity 78    
Minimum Humidity 62    
Precipitation  
Precipitation T in 0.02 in 0.60 in (1917)
Month to date precipitation 0.21 0.47  
Year to date precipitation 0.21 0.47  
Snow  
Snow T in 0.20 in 5.50 in (1979)
Month to date snowfall 3.8 6.4  
Since 1 July snowfall 24.3 23.3  
Snow Depth T in    
Sea Level Pressure  
Sea Level Pressure 29.76 in    
Wind  
Wind Speed 23 mph (NNW)    
Max Wind Speed 43 mph    
Max Gust Speed 55 mph    
Visibility 7 miles    
Events Snow    
T = Trace of Precipitation, MM = Missing Value Source: NWS Daily Summary

Daily Weather History Graph

Daily Weather History Graph

Search for Another Location

Airport or City:

Trip Planner

Search our weather history database for the weather conditions in past years. The results will help you decide how hot, cold, wet, or windy it might be!

Date:

Astronomy

Jan. 26, 2014 Rise Set
Actual Time 7:49 AM CST 5:30 PM CST
Civil Twilight 7:18 AM CST 6:01 PM CST
Nautical Twilight 6:43 AM CST 6:35 PM CST
Astronomical Twilight 6:09 AM CST 7:09 PM CST
Moon 3:28 AM CST (1/26) 1:19 PM CST (1/26)
Length of Visible Light 10h 42m
Length of Day
9h 41m
Waning Crescent, 23% of the Moon is Illuminated
Jan 26
Waning Crescent
Jan 30
New
Feb 6
First Quarter
Feb 14
Full
Feb 22
Last Quarter

Hourly Weather History & Observations

Time (CST) Temp. Windchill Dew Point Humidity Pressure Visibility Wind Dir Wind Speed Gust Speed Precip Events Conditions
12:42 AM 37.9 °F - 30.9 °F 76% 29.41 in 10.0 mi North - - N/A   Mostly Cloudy
12:56 AM 37.9 °F 26.3 °F 30.9 °F 76% 29.46 in 10.0 mi NW 26.5 mph 33.4 mph N/A   Mostly Cloudy
1:38 AM 37.9 °F 26.1 °F 30.9 °F 76% 29.42 in 10.0 mi NW 27.6 mph 36.8 mph N/A   Overcast
1:56 AM 37.9 °F 26.1 °F 30.0 °F 73% 29.47 in 10.0 mi NW 27.6 mph 42.6 mph N/A   Overcast
2:56 AM 37.0 °F 24.1 °F 28.9 °F 73% 29.51 in 10.0 mi NW 32.2 mph 41.4 mph N/A   Overcast
3:56 AM 37.0 °F 25.1 °F 28.9 °F 73% 29.52 in 10.0 mi NW 26.5 mph 36.8 mph N/A   Mostly Cloudy
4:47 AM 35.1 °F 22.5 °F 28.0 °F 76% 29.52 in 10.0 mi NW 26.5 mph 34.5 mph N/A   Overcast
4:56 AM 35.1 °F 23.3 °F 28.0 °F 76% 29.57 in 10.0 mi NW 23.0 mph 34.5 mph N/A   Overcast
5:56 AM 34.0 °F 21.3 °F 26.1 °F 73% 29.58 in 10.0 mi NW 25.3 mph 38.0 mph N/A   Overcast
6:56 AM 30.9 °F 20.7 °F 24.1 °F 76% 29.57 in 10.0 mi NW 13.8 mph 24.2 mph N/A   Partly Cloudy
7:56 AM 32.0 °F 21.6 °F 24.1 °F 73% 29.57 in 10.0 mi NW 15.0 mph - N/A   Overcast
8:56 AM 30.9 °F 24.3 °F 25.0 °F 79% 29.56 in 10.0 mi NW 6.9 mph - N/A   Overcast
9:07 AM 30.9 °F 22.8 °F 25.0 °F 79% 29.51 in 10.0 mi NW 9.2 mph - N/A   Overcast
9:21 AM 30.9 °F 26.2 °F 24.1 °F 76% 29.50 in 10.0 mi WNW 4.6 mph - 0.00 in Snow Light Snow
9:56 AM 32.0 °F 25.6 °F 26.1 °F 79% 29.50 in 10.0 mi SSW 6.9 mph - 0.00 in   Mostly Cloudy
10:56 AM 36.0 °F 29.0 °F 28.0 °F 73% 29.49 in 10.0 mi WSW 9.2 mph - N/A   Overcast
11:43 AM 27.0 °F 12.2 °F 21.9 °F 81% 29.50 in 9.0 mi NNE 24.2 mph 33.4 mph 0.00 in Snow Light Snow
11:56 AM 25.0 °F 8.9 °F 19.9 °F 81% 29.57 in 9.0 mi NNE 26.5 mph 33.4 mph 0.00 in Snow Light Snow
12:04 PM 24.1 °F 8.7 °F 19.9 °F 84% 29.54 in 1.5 mi North 23.0 mph 34.5 mph 0.00 in Snow Light Snow
12:17 PM 24.1 °F 9.0 °F 19.9 °F 84% 29.55 in 3.0 mi North 21.9 mph - 0.00 in Snow Light Snow
12:27 PM 24.1 °F 9.0 °F 19.9 °F 84% 29.57 in 8.0 mi North 21.9 mph 32.2 mph 0.00 in Snow Light Snow
12:56 PM 27.0 °F 13.9 °F 19.9 °F 75% 29.61 in 9.0 mi NNW 18.4 mph 25.3 mph 0.00 in   Overcast
1:49 PM 23.0 °F 5.1 °F 16.0 °F 74% 29.64 in 9.0 mi North 31.1 mph 40.3 mph 0.00 in Snow Light Snow
1:56 PM 21.9 °F 5.1 °F 15.1 °F 75% 29.70 in 6.0 mi North 25.3 mph 40.3 mph 0.00 in Snow Light Snow
2:13 PM 21.0 °F 3.3 °F 12.9 °F 71% 29.67 in 9.0 mi North 27.6 mph 34.5 mph 0.00 in Snow Light Snow
2:26 PM 19.9 °F 2.8 °F 12.9 °F 74% 29.68 in 2.0 mi NNW 24.2 mph 35.7 mph 0.00 in Snow Light Snow
2:36 PM 19.9 °F 2.8 °F 10.9 °F 68% 29.69 in 9.0 mi NNW 24.2 mph 36.8 mph 0.00 in Snow Light Snow
2:56 PM 19.9 °F 0.7 °F 10.0 °F 65% 29.77 in 10.0 mi NNW 32.2 mph 46.0 mph 0.00 in   Mostly Cloudy
3:06 PM 19.0 °F 0.6 °F 10.0 °F 68% 29.74 in 4.0 mi NNW 27.6 mph 48.3 mph 0.00 in Snow Light Snow
3:20 PM 16.0 °F -7.0 °F 10.0 °F 77% 29.78 in 0.2 mi NNW 42.6 mph 54.1 mph N/A Snow Light Snow
3:22 PM 15.1 °F -6.8 °F 10.0 °F 80% 29.79 in 0.2 mi NNW 35.7 mph 54.1 mph N/A Snow Light Snow
3:27 PM 15.1 °F -6.5 °F 10.0 °F 80% 29.79 in 3.0 mi NNW 34.5 mph 54.1 mph 0.00 in Snow Light Snow
3:56 PM 16.0 °F -5.8 °F 3.9 °F 59% 29.90 in 0.5 mi NNW 36.8 mph 48.3 mph 0.00 in Snow Light Snow
4:05 PM 12.0 °F -10.1 °F 5.0 °F 73% 29.87 in 1.0 mi NNW 32.2 mph 49.5 mph 0.00 in Snow Light Snow
4:07 PM 12.0 °F -10.1 °F 5.0 °F 73% 29.87 in 2.5 mi NNW 32.2 mph 47.2 mph 0.00 in Snow Light Snow
4:56 PM 9.0 °F -14.6 °F -2.0 °F 61% 30.01 in 7.0 mi NNW 33.4 mph 44.9 mph 0.00 in Snow Light Snow
5:22 PM 7.0 °F -16.3 °F -2.9 °F 64% 29.97 in 10.0 mi NNW 29.9 mph 46.0 mph 0.00 in   Mostly Cloudy
5:56 PM 6.1 °F -17.2 °F -5.1 °F 60% 30.07 in 10.0 mi NNW 28.8 mph 48.3 mph 0.00 in   Mostly Cloudy
6:56 PM 3.9 °F -19.8 °F -7.1 °F 60% 30.14 in 10.0 mi NNW 27.6 mph 43.7 mph N/A   Scattered Clouds
7:06 PM 3.9 °F -17.6 °F -4.0 °F 70% 30.08 in 1.0 mi North 21.9 mph 36.8 mph 0.00 in Snow Light Snow
7:14 PM 3.0 °F -18.3 °F -2.0 °F 80% 30.09 in 3.0 mi North 20.7 mph 29.9 mph 0.00 in Snow Light Snow
7:56 PM 1.9 °F -19.8 °F -6.0 °F 69% 30.21 in 10.0 mi NNW 20.7 mph 34.5 mph 0.00 in   Mostly Cloudy
8:46 PM 1.0 °F -19.9 °F -5.1 °F 75% 30.15 in 2.0 mi NNW 18.4 mph - 0.00 in Snow Light Snow
8:56 PM 1.0 °F -23.2 °F -5.1 °F 75% 30.25 in 5.0 mi NNW 26.5 mph 34.5 mph 0.00 in Snow Light Snow
9:56 PM -0.0 °F -24.7 °F -8.0 °F 69% 30.28 in 9.0 mi NNW 26.5 mph 35.7 mph 0.00 in   Overcast
10:56 PM -0.9 °F -22.4 °F -9.0 °F 69% 30.32 in 10.0 mi NW 18.4 mph 26.5 mph N/A   Overcast
11:56 PM -2.0 °F -24.4 °F -9.9 °F 69% 30.35 in 3.0 mi NW 19.6 mph 31.1 mph 0.00 in Snow Light Snow